Date,TemperatureHighF,TemperatureAvgF,TemperatureLowF,DewpointHighF,DewpointAvgF,DewpointLowF,HumidityHigh,HumidityAvg,HumidityLow,PressureMaxIn,PressureMinIn,WindSpeedMaxMPH,WindSpeedAvgMPH,GustSpeedMaxMPH,PrecipitationSumIn
2013-3-1,47.7,39.2,33.4,34.5,31.4,26.3,92,74,56,29.77,29.59,12,1,12,0.00
2013-3-2,39.7,35.6,30.6,26.8,25.4,23.8,83,66,57,29.77,29.68,19,2,19,0.00
2013-3-3,41.4,32.5,27.9,26.1,19.6,13.7,83,60,36,29.74,29.64,15,2,15,0.00
2013-3-4,40.5,32.0,26.2,20.9,17.1,-5.5,69,55,36,29.88,29.73,24,4,24,0.00
2013-3-5,49.6,37.9,28.6,30.8,24.3,18.9,71,59,36,30.02,29.88,16,2,16,0.00
2013-3-6,45.3,39.0,36.1,38.3,32.5,28.6,86,77,67,30.00,29.88,29,8,29,0.00
2013-3-7,39.0,35.1,32.4,33.8,30.7,26.9,100,84,72,30.06,29.92,25,5,25,0.02
2013-3-8,39.4,35.1,29.8,35.0,30.4,17.5,100,84,59,30.18,29.99,23,3,23,0.10
2013-3-9,54.9,42.5,32.7,28.4,23.5,13.6,69,49,36,30.32,30.16,17,3,17,0.00
2013-3-10,72.9,38.1,29.1,49.1,31.4,20.5,100,77,55,30.39,30.31,15,2,15,0.00
2013-3-11,56.1,45.5,37.0,48.6,42.1,34.1,98,88,68,30.33,30.10,16,3,16,0.00
2013-3-12,54.3,51.1,43.0,54.3,50.5,39.9,100,98,86,30.11,29.69,27,6,27,0.86
2013-3-13,53.1,42.3,33.8,40.8,32.7,18.7,100,72,36,29.89,29.78,15,1,15,0.00
2013-3-14,38.7,32.9,27.0,28.6,11.5,3.3,70,42,36,29.94,29.83,18,4,18,0.00
2013-3-15,43.0,35.5,27.0,29.8,14.7,3.5,63,43,36,29.97,29.71,20,4,20,0.00
2013-3-16,40.8,34.4,31.6,29.7,23.9,14.0,88,67,36,29.91,29.77,10,1,20,0.04
2013-3-17,38.3,32.5,27.5,29.1,17.3,5.1,89,57,36,30.31,29.90,14,1,14,0.02
2013-3-18,34.5,29.1,23.0,32.5,11.3,-0.3,100,51,36,30.43,30.05,20,4,20,0.00
2013-3-19,43.0,36.0,32.4,40.8,34.5,19.2,100,95,79,30.05,29.69,21,4,21,0.49
2013-3-20,45.5,36.2,29.1,29.3,18.5,4.7,79,50,35,29.88,29.78,19,2,19,0.00
2013-3-21,39.4,34.2,30.9,25.1,17.0,7.0,74,51,36,29.84,29.63,11,1,11,0.00
2013-3-22,40.6,33.5,25.9,19.5,12.5,3.7,62,42,36,29.88,29.71,14,2,14,0.00
2013-3-23,47.7,37.7,31.6,21.9,17.6,10.0,59,45,36,29.92,29.80,18,3,18,0.00
2013-3-24,50.4,38.5,28.8,25.5,18.0,7.6,64,44,36,29.94,29.71,15,1,15,0.00
2013-3-25,43.2,38.4,35.2,35.2,29.0,20.9,89,69,43,29.72,29.47,19,3,19,0.04
2013-3-26,54.3,42.7,36.3,35.0,28.5,19.5,73,58,36,29.85,29.57,23,1,23,0.00
2013-3-27,56.3,43.0,33.4,32.0,26.1,19.4,65,53,36,29.95,29.84,30,2,30,0.00
2013-3-28,51.4,43.7,35.2,36.0,31.6,27.5,75,63,50,30.10,29.94,17,2,17,0.00
2013-3-29,57.4,46.4,36.9,35.0,29.6,20.4,70,53,36,30.13,30.05,15,2,15,0.00
2013-3-30,65.3,47.1,34.9,37.6,29.9,20.4,78,54,36,30.16,30.05,13,1,13,0.00
2013-3-31,55.6,45.3,34.3,45.5,35.0,25.3,100,68,50,30.13,29.67,18,4,18,0.20